Weather History for Taos, NM

Change the Weather History Date:

Wednesday, August 13, 2014

  Actual Average Record
Temperature  
Mean Temperature 66 °F -  
Max Temperature 82 °F 79 °F 89 °F (2007)
Min Temperature 51 °F 47 °F 41 °F (1999)
Cooling Degree Days 2    
Growing Degree Days 16 (Base 50)    
Moisture  
Dew Point 45 °F    
Average Humidity 51    
Maximum Humidity 72    
Minimum Humidity 23    
Precipitation  
Precipitation 0.00 in - - ()
Sea Level Pressure  
Sea Level Pressure 30.38 in    
Wind  
Wind Speed 6 mph (SW)    
Max Wind Speed 21 mph    
Max Gust Speed 30 mph    
Averages and records for this station are not official NWS values.
T = Trace of Precipitation, MM = Missing Value Source: NWS Daily Summary

Daily Weather History Graph

Daily Weather History Graph

Search for Another Location

Airport:

Trip Planner

Search our weather history database for the weather conditions in past years. The results will help you decide how hot, cold, wet, or windy it might be!

Date:

Astronomy

Aug. 13, 2014 Rise Set
Actual Time 6:18 AM MDT 7:55 PM MDT
Civil Twilight 5:51 AM MDT 8:23 PM MDT
Nautical Twilight 5:18 AM MDT 8:56 PM MDT
Astronomical Twilight 4:43 AM MDT 9:31 PM MDT
Moon 9:50 PM MDT (8/13) 9:42 AM MDT (8/13)
Length of Visible Light 14h 31m
Length of Day
13h 36m
Waning Gibbous, 87% of the Moon is Illuminated
Aug 13
Waning Gibbous
Aug 17
Last Quarter
Aug 25
New
Sep 2
First Quarter
Sep 8
Full

Hourly Weather History & Observations

Time (MDT) Temp. Dew Point Humidity Pressure Visibility Wind Dir Wind Speed Gust Speed Precip Events Conditions
12:15 AM 60.8 °F 44.6 °F 55% 30.40 in - East 10.4 mph - N/A   Clear
12:35 AM 59.0 °F 44.6 °F 59% 30.40 in - East 4.6 mph - N/A   Clear
12:55 AM 57.2 °F 42.8 °F 59% 30.41 in - Calm Calm - N/A   Clear
1:15 AM 57.2 °F 42.8 °F 59% 30.41 in - NNE 4.6 mph - N/A   Clear
1:35 AM 57.2 °F 42.8 °F 59% 30.40 in - ENE 6.9 mph - N/A   Partly Cloudy
1:55 AM 55.4 °F 42.8 °F 63% 30.40 in - Calm Calm - N/A   Clear
2:15 AM 53.6 °F 42.8 °F 67% 30.40 in - Calm Calm - N/A   Clear
2:35 AM 51.8 °F 42.8 °F 71% 30.40 in - North 4.6 mph - N/A   Clear
2:55 AM 51.8 °F 42.8 °F 71% 30.40 in - NE 4.6 mph - N/A   Clear
3:15 AM 55.4 °F 44.6 °F 67% 30.40 in - ENE 4.6 mph - N/A   Clear
3:35 AM 53.6 °F 42.8 °F 67% 30.40 in - Calm Calm - N/A   Clear
3:55 AM 53.6 °F 42.8 °F 67% 30.40 in - West 4.6 mph - N/A   Clear
4:15 AM 55.4 °F 42.8 °F 63% 30.40 in - Calm Calm - N/A   Clear
4:35 AM 53.6 °F 42.8 °F 67% 30.41 in - Calm Calm - N/A   Clear
4:55 AM 53.6 °F 42.8 °F 67% 30.41 in - Calm Calm - N/A   Partly Cloudy
5:15 AM 51.8 °F 42.8 °F 71% 30.41 in - East 4.6 mph - N/A   Partly Cloudy
5:35 AM 53.6 °F 44.6 °F 72% 30.41 in - ENE 5.8 mph - N/A   Clear
7:35 AM 55.4 °F 46.4 °F 72% 30.43 in - Calm Calm - N/A   Clear
8:15 AM 60.8 °F 46.4 °F 59% 30.43 in - North 3.5 mph - N/A   Clear
8:35 AM 62.6 °F 46.4 °F 55% 30.43 in - North 3.5 mph - N/A   Clear
9:15 AM 64.4 °F 48.2 °F 56% 30.43 in - NNW 3.5 mph - N/A   Clear
9:35 AM 64.4 °F 48.2 °F 56% 30.43 in - NNW 4.6 mph - N/A   Clear
9:55 AM 66.2 °F 48.2 °F 52% 30.43 in - NW 3.5 mph - N/A   Clear
10:15 AM 66.2 °F 48.2 °F 52% 30.42 in - West 5.8 mph - N/A   Clear
10:35 AM 68.0 °F 48.2 °F 49% 30.42 in - West 4.6 mph - N/A   Clear
10:55 AM 68.0 °F 48.2 °F 49% 30.42 in - WSW 4.6 mph - N/A   Clear
11:15 AM 71.6 °F 50.0 °F 46% 30.41 in - SSE 4.6 mph - N/A   Clear
11:35 AM 71.6 °F 48.2 °F 43% 30.40 in - NW 6.9 mph - N/A   Partly Cloudy
11:55 AM 73.4 °F 48.2 °F 41% 30.39 in - South 5.8 mph - N/A   Partly Cloudy
12:15 PM 73.4 °F 48.2 °F 41% 30.38 in - South 9.2 mph - N/A   Partly Cloudy
12:35 PM 73.4 °F 48.2 °F 41% 30.38 in - Calm Calm - N/A   Clear
12:55 PM 77.0 °F 46.4 °F 34% 30.37 in - South 8.1 mph - N/A   Clear
1:15 PM 77.0 °F 46.4 °F 34% 30.36 in - NW 4.6 mph - N/A   Clear
1:35 PM 78.8 °F 46.4 °F 32% 30.35 in - Calm Calm - N/A   Clear
1:55 PM 78.8 °F 44.6 °F 30% 30.34 in - North 3.5 mph - N/A   Clear
2:15 PM 78.8 °F 42.8 °F 28% 30.33 in - WNW 6.9 mph - N/A   Clear
2:35 PM 80.6 °F 42.8 °F 26% 30.32 in - West 9.2 mph - N/A   Clear
2:55 PM 82.4 °F 42.8 °F 25% 30.32 in - WSW 10.4 mph 17.3 mph N/A   Clear
3:15 PM 82.4 °F 41.0 °F 23% 30.31 in - SW 12.7 mph 19.6 mph N/A   Clear
3:35 PM 82.4 °F 42.8 °F 25% 30.29 in - WSW 12.7 mph 17.3 mph N/A   Clear
3:55 PM 80.6 °F 42.8 °F 26% 30.29 in - WSW 15.0 mph - N/A   Partly Cloudy
4:15 PM 80.6 °F 39.2 °F 23% 30.30 in - SW 16.1 mph 21.9 mph N/A   Mostly Cloudy
4:35 PM 78.8 °F 42.8 °F 28% 30.31 in - WSW 11.5 mph 17.3 mph N/A   Overcast
4:55 PM 77.0 °F 42.8 °F 29% 30.31 in - WSW 15.0 mph - N/A   Mostly Cloudy
5:15 PM 75.2 °F 46.4 °F 36% 30.31 in - WSW 20.7 mph 29.9 mph N/A   Mostly Cloudy
5:35 PM 73.4 °F 46.4 °F 38% 30.32 in - WSW 18.4 mph - N/A Thunderstorm Thunderstorm
5:55 PM 71.6 °F 48.2 °F 43% 30.32 in - WSW 19.6 mph 25.3 mph N/A   Clear
6:15 PM 69.8 °F 46.4 °F 43% 30.33 in - SW 15.0 mph - N/A   Clear
6:55 PM 69.8 °F 48.2 °F 46% 30.36 in - South 8.1 mph - N/A   Overcast
7:35 PM 66.2 °F 48.2 °F 52% 30.35 in - ESE 5.8 mph - N/A   Overcast
7:55 PM 66.2 °F 48.2 °F 52% 30.34 in - East 4.6 mph - N/A   Scattered Clouds
10:15 PM 60.8 °F 48.2 °F 63% 30.37 in - SE 6.9 mph - N/A   Scattered Clouds
10:35 PM 60.8 °F 50.0 °F 68% 30.36 in - East 5.8 mph - N/A   Overcast
10:55 PM 60.8 °F 48.2 °F 63% 30.37 in - ESE 5.8 mph - N/A   Scattered Clouds
11:15 PM 60.8 °F 48.2 °F 63% 30.37 in - ESE 6.9 mph - N/A   Mostly Cloudy
11:35 PM 59.0 °F 48.2 °F 67% 30.37 in - East 5.8 mph - N/A   Scattered Clouds
11:55 PM 57.2 °F 48.2 °F 72% 30.36 in - ESE 5.8 mph - N/A   Partly Cloudy